Bloomington, IL

6:50 AM CDT on September 21, 2017 (GMT -0500)
Central Ill Regional

Weather History for KBMI - June, 2012

Change the Weather History Date:

Saturday, June 30, 2012

  Actual Average Record
Temperature  
Mean Temperature 77 °F -  
Max Temperature 84 °F 83 °F 93 °F (1978)
Min Temperature 70 °F 62 °F 54 °F (2010)
Cooling Degree Days 12    
Growing Degree Days 27 (Base 50)    
Moisture  
Dew Point 69 °F    
Average Humidity 75    
Maximum Humidity 100    
Minimum Humidity 54    
Precipitation  
Precipitation 0.06 in - - ()
Sea Level Pressure  
Sea Level Pressure 29.85 in    
Wind  
Wind Speed 8 mph (East)    
Max Wind Speed 14 mph    
Max Gust Speed -    
Visibility 10 miles    
Events Rain , Thunderstorm    
Averages and records for this station are not official NWS values.
T = Trace of Precipitation, MM = Missing Value Source: NWS Daily Summary

Daily Weather History Graph

Daily Weather History Graph

Search for Another Location

Airport or City:

Trip Planner

Search our weather history database for the weather conditions in past years. The results will help you decide how hot, cold, wet, or windy it might be!

Date:

Astronomy

Jun. 30, 2012 Rise Set
Actual Time 5:28 AM CDT 8:30 PM CDT
Civil Twilight 4:55 AM CDT 9:03 PM CDT
Nautical Twilight 4:13 AM CDT 9:45 PM CDT
Astronomical Twilight 3:24 AM CDT 10:34 PM CDT
Moon 5:26 PM CDT (6/30) 2:24 AM CDT (6/30)
Length of Visible Light 16h 07m
Length of Day
15h 01m
Waxing Gibbous, 87% of the Moon is Illuminated
Jun 30
Waxing Gibbous
Jul 3
Full
Jul 10
Last Quarter
Jul 18
New
Jul 26
First Quarter

Hourly Weather History & Observations

Time (CDT) Temp. Heat Index Dew Point Humidity Pressure Visibility Wind Dir Wind Speed Gust Speed Precip Events Conditions
12:56 AM 73.9 °F - 64.9 °F 73% 29.85 in 10.0 mi NNE 13.8 mph - N/A   Partly Cloudy
1:56 AM 72.0 °F - 63.9 °F 76% 29.83 in 10.0 mi ENE 10.4 mph - N/A   Scattered Clouds
2:56 AM 70.9 °F - 63.9 °F 78% 29.82 in 10.0 mi ENE 4.6 mph - 0.00 in Rain Light Rain
3:56 AM 70.0 °F - 65.8 °F 87% 29.77 in 10.0 mi South 10.4 mph - 0.00 in Rain Light Rain
4:56 AM 70.9 °F - 63.9 °F 78% 29.82 in 10.0 mi NNW 3.5 mph - 0.00 in   Clear
6:56 AM 70.9 °F - 65.8 °F 84% 29.83 in 10.0 mi South 5.8 mph - N/A   Clear
7:56 AM 72.9 °F - 65.8 °F 79% 29.84 in 10.0 mi South 5.8 mph - N/A   Clear
8:56 AM 77.9 °F - 64.9 °F 64% 29.86 in 10.0 mi SSE 5.8 mph - N/A   Clear
9:56 AM 82.9 °F 84.6 °F 64.9 °F 54% 29.87 in 10.0 mi NE 3.5 mph - N/A   Unknown
10:56 AM 82.9 °F 85.0 °F 65.8 °F 56% 29.85 in 10.0 mi NE 5.8 mph - N/A   Clear
11:56 AM 83.8 °F 86.5 °F 66.9 °F 57% 29.83 in 10.0 mi SSE 13.8 mph - N/A   Clear
12:56 PM 84.9 °F 87.6 °F 66.9 °F 55% 29.85 in 10.0 mi South 6.9 mph - N/A Thunderstorm Clear
1:56 PM 81.0 °F 85.2 °F 72.0 °F 74% 29.86 in 10.0 mi NNW 5.8 mph - 0.03 in Thunderstorm Mostly Cloudy
2:56 PM 79.0 °F - 72.9 °F 81% 29.86 in 10.0 mi NNE 9.2 mph - 0.03 in Thunderstorm Scattered Clouds
3:56 PM 79.0 °F - 72.9 °F 81% 29.84 in 10.0 mi NE 10.4 mph - N/A   Scattered Clouds
4:56 PM 82.9 °F 88.5 °F 72.9 °F 71% 29.86 in 10.0 mi NNE 10.4 mph - N/A   Scattered Clouds
5:04 PM 82.4 °F 88.2 °F 73.4 °F 74% 29.90 in 10.0 mi NNE 6.9 mph - N/A Thunderstorm Scattered Clouds
5:56 PM 81.9 °F 87.7 °F 73.9 °F 77% 29.84 in 10.0 mi NE 6.9 mph - N/A   Clear
7:56 PM 79.9 °F - 74.8 °F 85% 29.86 in 10.0 mi NE 4.6 mph - N/A   Clear
8:56 PM 75.9 °F - 75.9 °F 100% 29.86 in 10.0 mi East 5.8 mph - N/A   Clear
9:56 PM 77.0 °F - 72.0 °F 84% 29.86 in 10.0 mi SE 6.9 mph - N/A   Clear
10:56 PM 75.9 °F - 68.9 °F 79% 29.85 in 10.0 mi SE 6.9 mph - N/A   Clear
11:56 PM 74.8 °F - 68.9 °F 82% 29.86 in 10.0 mi South 5.8 mph - N/A   Clear